Location: ????????
(38.4362°N, 22.8767°E)
Time: 13:42:58
(UTC+00:00)

ATLAS 3B R/B - Pass Details

Date: 23 April 2024
Orbit: 943 x 1251 km, 63.8° (Epoch: 18 May)

Event Time Altitude Azimuth Distance (km) Brightness Sun altitude
Rises 02:30:23 0° 323° (NW) 4,193 5.7 -13.6°
Reaches altitude 10° 02:33:13 10° 320° (NW) 3,231 5.1 -13.1°
Maximum altitude 02:40:51 57° 245° (WSW) 1,435 3.0 -11.8°
Drops below altitude 10° 02:48:17 10° 168° (SSE) 3,141 5.0 -10.5°
Sets 02:51:01 0° 165° (SSE) 4,068 5.6 -10.0°
